This is the latest recevied weather packets stored in our database for station/object KD9CCP. If no packets are shown the sender has not sent any weather packets the latest 10 day(s).
| Time | Temp. | Humidity | Pressure | Rain* | Wind** | Luminosity | Snow |
|---|---|---|---|---|---|---|---|
| 1777794105 | 8.89° C | 79% | 1009.6 hPa | 0 mm | - | 0 W/m² | - |
| 1777793802 | 8.89° C | 76% | 1009.7 hPa | 0 mm | - | 0 W/m² | - |
| 1777793501 | 8.33° C | 78% | 1009.7 hPa | 0 mm | - | 0 W/m² | - |
| 1777793198 | 7.78° C | 80% | 1009.5 hPa | 0 mm | - | 0 W/m² | - |
| 1777792895 | 8.33° C | 79% | 1009.5 hPa | 0 mm | - | 0 W/m² | - |
| 1777792591 | 8.33° C | 78% | 1009.7 hPa | 0 mm | - | 0 W/m² | - |
| 1777792288 | 8.89° C | 74% | 1009.7 hPa | 0 mm | - | 0 W/m² | - |
| 1777791985 | 8.89° C | 72% | 1009.6 hPa | 0 mm | - | 0 W/m² | - |
| 1777791684 | 10° C | 67% | 1009.8 hPa | 0 mm | - | 0 W/m² | - |
| 1777791380 | 10° C | 65% | 1010 hPa | 0 mm | - | 0 W/m² | - |
| 1777791078 | 9.44° C | 65% | 1009.8 hPa | 0 mm | - | 0 W/m² | - |
| 1777790775 | 9.44° C | 65% | 1009.8 hPa | 0 mm | - | 0 W/m² | - |
| 1777790472 | 9.44° C | 63% | 1010 hPa | 0 mm | - | 0 W/m² | - |
| 1777790169 | 9.44° C | 63% | 1009.9 hPa | 0 mm | - | 0 W/m² | - |
| 1777789868 | 9.44° C | 63% | 1009.8 hPa | 0 mm | - | 0 W/m² | - |
| 1777789566 | 9.44° C | 63% | 1009.9 hPa | 0 mm | - | 0 W/m² | - |
| 1777789264 | 8.89° C | 61% | 1010 hPa | 0 mm | - | 0 W/m² | - |
| 1777788960 | 8.89° C | 62% | 1010.1 hPa | 0 mm | - | 0 W/m² | - |
| 1777788657 | 8.89° C | 64% | 1010.1 hPa | 0 mm | - | 0 W/m² | - |
| 1777788356 | 8.89° C | 64% | 1010.3 hPa | 0 mm | - | 0 W/m² | - |
| 1777788052 | 8.33° C | 66% | 1010.2 hPa | 0 mm | - | 0 W/m² | - |
| 1777787748 | 7.78° C | 66% | 1010.2 hPa | 0 mm | - | 0 W/m² | - |
| 1777787444 | 7.78° C | 68% | 1010.4 hPa | 0 mm | - | 0 W/m² | - |
| 1777787140 | 8.33° C | 69% | 1010.4 hPa | 0 mm | - | 0 W/m² | - |
| 1777786837 | 8.33° C | 71% | 1010.4 hPa | 0 mm | - | 0 W/m² | - |
* Rain latest hour (hover to see other rain measurements)
** Current wind speed in m/s (hover to see current wind gust speed)